Wind_Speed
7 7 6 6 6 6 6 6 5 5 5 4 4 4 4 4 4 4 5 5 6 7 7 7 8 8 9 9 10 10 10 10 11 12 14 11 4 4 5 4 2 2 4 4 4 3 3 2 2 3 3 3 3 3 3 4 4 3 3 3 1 2 3 4 6 6 3 3 4 5 9 4 5 9 10 11 9 9 12 14 12 10 8 7 11 16 16 15
9 8 8 8 7 7 7 7 6 6 6 6 5 5 6 6 6 6 7 7 7 8 8 8 9 9 9 10 11 11 11 11 12 12 10 4 4 7 6 3 2 5 6 6 5 3 2 2 2 3 2 2 2 2 2 3 4 3 3 2 2 5 4 5 6 6 3 3 7 8 7 4 6 9 10 7 10 11 12 16 14 8 9 12 16 17 14 13
11 10 10 9 9 9 8 8 8 8 7 7 7 7 7 7 7 7 8 8 8 9 9 9 9 10 10 11 11 12 12 13 13 8 1 4 8 7 3 3 6 8 8 8 6 4 3 2 2 3 2 1 1 2 3 3 3 2 3 1 5 6 4 5 5 6 5 6 8 8 6 7 10 10 7 5 10 12 9 12 10 8 16 20 17 14 11 10
12 12 11 11 11 10 10 9 9 9 8 8 8 8 9 9 8 9 9 9 10 10 10 10 10 10 11 11 12 12 12 14 8 2 6 7 7 4 2 7 9 9 9 8 6 4 3 3 3 3 1 1 2 2 2 2 2 1 3 3 4 3 1 5 4 5 6 6 6 7 7 10 12 9 7 5 6 10 10 8 7 12 21 20 15 12 10 9
14 13 13 12 12 11 11 11 11 10 10 10 10 10 10 10 10 10 10 11 11 11 11 11 11 11 12 11 11 11 10 8 1 7 6 5 4 4 6 9 10 9 9 8 5 4 4 4 3 1 1 1 2 2 2 1 2 1 3 3 3 3 1 6 5 6 7 6 7 7 7 9 11 11 11 6 3 10 13 10 13 18 18 15 12 10 10 10
15 14 14 13 13 12 12 12 12 11 11 11 11 11 11 11 11 11 11 12 12 13 12 12 12 11 12 12 11 11 7 2 3 4 4 5 6 9 11 12 11 9 9 7 4 4 5 5 3 1 1 2 1 1 1 1 2 1 3 4 3 3 5 9 9 9 9 9 9 8 9 11 11 14 13 10 13 17 19 16 16 14 10 9 8 8 9 10
16 16 15 14 14 14 13 13 13 13 13 13 12 12 12 12 12 12 12 13 13 13 13 13 13 12 12 12 12 11 9 8 8 8 9 10 12 14 14 14 11 9 8 6 4 4 5 5 4 2 2 2 0 1 2 1 2 2 3 4 5 6 7 10 12 13 14 13 14 12 12 12 10 10 11 14 18 16 13 9 8 7 7 8 8 8 9 9
17 17 16 15 15 15 15 15 14 14 14 14 13 13 13 13 13 13 13 13 14 14 14 14 13 13 12 12 12 11 13 14 12 12 13 13 14 14 14 13 11 9 7 6 4 5 4 5 6 3 1 0 2 2 1 1 1 4 3 4 4 7 9 13 16 18 17 16 16 13 13 15 11 9 11 15 13 9 6 5 6 5 6 8 10 10 8 7
18 18 17 16 16 16 16 15 15 15 15 14 14 14 14 14 14 14 14 14 14 14 14 14 14 14 12 13 11 9 12 12 9 9 10 10 11 11 12 12 10 9 7 6 5 5 5 4 6 5 2 2 2 2 2 1 2 3 4 5 6 10 14 16 18 18 16 14 13 9 12 14 7 5 8 6 6 8 6 6 6 5 6 8 8 8 8 7
19 18 18 17 16 16 16 16 16 15 15 15 15 15 14 14 14 14 14 14 14 15 15 14 14 14 12 12 8 5 10 9 6 7 7 7 8 8 9 9 9 9 8 7 5 5 6 4 4 5 3 2 3 2 3 3 2 2 3 6 9 14 17 16 17 19 15 14 12 7 10 10 2 1 2 6 11 7 5 7 7 7 8 7 5 6 7 8
19 18 18 17 17 16 16 16 16 16 15 15 15 15 14 14 14 14 15 15 15 15 14 14 14 13 12 11 9 8 9 9 7 7 7 8 8 8 9 9 9 9 8 7 5 4 6 6 4 4 3 2 2 2 3 2 1 3 5 7 10 13 15 15 15 14 9 7 7 5 6 6 0 2 1 7 10 8 8 9 7 7 7 4 4 5 6 8
18 18 17 17 16 16 16 16 16 15 15 15 15 15 14 14 14 15 15 15 14 14 13 13 12 12 11 12 16 15 13 12 12 11 12 12 12 11 11 10 9 9 8 7 5 4 5 7 7 5 4 3 2 0 1 1 2 3 4 5 9 10 10 10 6 3 1 1 3 1 3 5 2 5 3 9 9 9 11 11 8 6 5 3 3 4 5 7
17 17 17 16 16 15 15 15 15 15 15 15 15 15 14 15 15 14 14 14 14 13 12 12 12 12 10 12 16 16 14 15 15 15 15 15 14 12 11 10 10 9 9 8 7 6 6 8 9 7 5 4 2 1 1 1 2 4 3 2 5 8 6 4 1 0 0 2 2 3 2 6 6 7 3 9 11 13 13 11 9 6 4 3 3 4 5 6
17 17 16 16 15 15 15 15 15 16 15 15 15 15 14 14 14 14 14 13 13 12 12 12 11 11 10 12 15 15 15 15 14 14 14 14 12 10 11 10 10 10 10 10 9 8 7 8 8 7 5 4 2 2 1 4 3 2 2 2 3 2 5 5 2 1 1 2 3 5 2 6 8 8 5 11 16 17 14 10 8 6 4 4 4 4 5 6
17 17 17 16 16 16 16 16 16 16 16 15 14 14 14 14 14 14 13 13 13 12 12 11 11 10 9 12 15 14 15 15 15 16 14 13 12 10 11 11 11 11 11 10 8 6 6 7 8 5 3 4 3 3 2 4 3 2 1 3 3 1 5 9 5 0 1 1 2 5 2 6 9 7 6 14 20 18 12 9 7 6 5 4 4 4 4 6
18 18 18 17 17 17 17 17 16 16 15 15 14 14 14 14 14 14 13 13 12 12 11 10 10 8 6 10 12 12 12 13 13 13 14 14 13 11 10 10 10 10 9 8 7 7 7 7 6 4 3 3 3 4 4 4 4 3 0 3 3 2 3 7 4 2 1 1 2 3 1 4 7 8 9 18 19 14 10 10 9 7 7 7 6 6 5 5
19 19 19 18 18 18 17 17 16 15 15 14 14 14 13 13 13 13 13 12 12 11 10 8 7 6 8 11 11 11 11 11 11 11 12 12 12 10 9 9 9 9 7 7 7 7 8 6 5 3 1 2 3 4 3 2 4 3 1 2 4 3 2 4 3 4 6 4 3 3 1 5 9 12 13 18 15 10 11 11 11 10 9 9 8 7 7 7
20 20 19 19 18 18 17 17 16 15 15 14 13 13 13 13 12 13 13 12 11 9 8 9 6 3 8 12 10 9 9 9 11 10 9 10 10 9 8 8 8 8 7 6 6 7 6 4 3 1 3 3 3 5 3 4 5 4 2 3 3 3 3 4 4 3 6 6 4 2 2 8 11 10 12 17 12 10 13 13 12 12 12 11 11 11 11 11
21 20 19 19 18 18 17 17 16 15 15 14 13 12 12 12 11 13 13 13 11 6 5 8 9 3 3 6 7 8 8 7 9 9 9 9 9 9 8 7 7 9 9 5 4 6 5 3 4 1 1 2 5 7 9 9 7 6 5 4 3 3 4 5 5 4 1 3 4 4 5 8 10 7 10 14 12 14 14 13 13 13 14 14 15 15 15 16
21 20 19 18 18 17 17 16 16 15 14 13 13 11 10 9 7 8 11 14 16 14 12 11 11 11 8 6 5 6 6 6 7 8 9 9 10 10 8 8 8 7 5 4 3 4 4 3 2 5 6 7 9 10 8 3 5 4 3 3 4 4 5 4 4 5 0 0 5 4 4 7 7 5 9 9 11 15 12 13 14 14 15 16 16 18 18 19
20 19 19 18 18 17 17 16 16 15 14 13 12 10 8 5 3 4 6 10 15 16 17 17 17 18 16 11 7 6 6 6 6 8 10 10 11 9 9 8 6 3 1 3 4 2 4 4 7 9 8 7 7 7 4 1 3 3 2 2 3 4 6 5 3 5 1 2 4 1 2 8 5 4 8 9 9 10 8 11 12 13 15 16 17 19 19 21
20 19 19 18 18 17 16 16 15 15 14 13 13 11 9 7 6 7 7 8 14 17 17 18 20 23 22 19 15 12 9 7 8 10 12 13 14 10 9 7 4 3 1 3 4 2 2 4 11 10 5 5 2 4 5 4 3 2 2 1 4 3 4 5 3 4 3 2 4 4 4 6 2 4 7 10 9 9 9 11 11 13 15 16 18 19 21 24
19 19 18 18 17 17 16 15 15 16 14 14 14 13 11 8 7 8 7 6 12 18 19 19 22 25 25 24 23 19 15 11 10 12 14 16 17 13 10 8 4 3 2 3 5 3 2 6 10 8 6 6 1 4 6 4 2 3 3 3 4 2 0 3 3 4 3 1 2 2 4 5 1 4 6 9 10 12 13 13 13 14 15 16 17 19 23 26
19 19 19 18 17 17 16 16 17 16 15 15 14 13 10 8 6 6 6 5 7 11 16 20 20 23 25 23 21 20 20 17 12 12 17 20 18 12 9 8 5 3 4 6 7 6 6 6 2 4 6 7 4 3 6 5 2 3 5 5 5 3 5 6 3 4 3 3 1 2 4 5 1 2 2 5 8 10 10 12 13 12 14 15 17 20 23 25
20 20 20 19 18 17 16 17 19 17 16 15 14 12 9 6 3 3 4 3 5 6 10 15 16 17 21 19 18 17 15 16 15 13 17 22 21 11 6 8 6 4 6 5 5 5 8 6 3 4 3 5 6 4 5 7 3 4 5 9 9 7 7 5 2 4 3 3 2 2 2 5 4 1 3 2 3 5 6 8 10 9 12 14 17 20 22 24
22 22 21 20 18 17 16 16 17 16 15 15 13 10 9 5 2 2 2 2 4 4 3 8 9 9 12 13 15 13 5 8 14 15 16 21 22 12 5 5 3 3 5 5 3 3 4 3 2 4 4 5 5 4 5 7 5 2 4 8 9 6 5 4 2 3 1 2 2 2 1 4 6 4 4 5 3 3 3 5 5 8 11 14 17 19 21 23
23 24 24 22 20 20 18 14 14 15 13 13 12 10 8 6 5 2 3 3 5 4 6 6 7 7 9 10 16 14 2 4 10 13 18 21 20 13 7 4 3 2 5 5 1 2 3 1 2 4 5 5 5 5 6 8 7 3 3 5 6 6 6 5 5 4 2 2 3 3 1 2 4 4 3 6 6 3 2 2 3 7 11 14 17 19 21 23
25 26 25 24 23 23 19 14 12 13 12 10 10 11 9 9 8 4 3 2 3 5 5 4 7 7 9 14 18 11 3 6 7 8 17 20 17 11 5 6 6 4 4 6 3 3 2 3 3 6 5 4 6 5 8 10 5 4 4 6 6 6 5 4 5 3 1 2 4 4 0 1 5 4 1 3 4 3 5 6 5 8 11 14 17 18 20 22
26 28 28 26 24 23 20 17 14 12 12 9 9 11 11 12 8 5 3 3 2 4 3 5 8 6 10 15 11 5 4 4 2 7 14 15 14 7 3 6 8 6 2 3 5 3 1 3 5 7 5 5 5 3 8 10 4 4 7 7 6 5 5 4 5 3 2 1 4 6 3 2 5 5 1 2 4 5 7 5 6 10 13 14 17 18 20 21
27 29 30 27 25 24 21 19 17 13 12 12 11 13 16 13 7 3 3 4 1 2 3 6 6 6 11 10 3 1 3 1 4 11 10 9 10 5 5 6 6 6 1 3 1 3 0 0 1 3 4 5 5 2 2 5 6 9 7 6 6 5 5 3 2 4 2 2 6 6 4 2 3 5 3 4 3 4 6 5 6 10 14 16 17 18 20 21
26 29 30 29 29 27 23 22 20 16 15 14 13 18 17 7 4 3 6 2 1 2 5 4 3 5 10 7 2 2 2 2 5 10 6 4 6 5 6 5 3 4 2 4 2 4 3 0 2 2 3 5 7 4 3 2 5 7 4 4 4 2 4 4 4 3 1 5 5 3 2 2 3 5 4 4 3 3 5 6 8 12 16 19 19 19 20 21
28 30 31 32 31 29 26 25 20 17 17 15 18 21 14 2 1 6 5 3 1 4 4 3 2 5 6 3 2 4 3 1 3 5 4 3 4 4 3 4 4 3 2 4 3 3 2 4 2 1 3 5 5 4 4 4 4 4 4 5 4 2 2 2 2 0 3 5 3 1 1 3 5 6 4 5 4 3 5 7 12 18 21 22 21 20 21 21
30 31 32 34 34 31 28 24 20 20 19 18 21 19 8 2 6 8 7 3 1 2 3 3 3 5 7 4 1 3 3 2 4 2 2 3 3 4 3 2 5 4 1 4 2 0 3 4 1 2 3 7 8 5 2 1 1 4 5 5 4 2 1 3 3 1 3 3 2 1 1 1 4 5 4 4 4 4 6 8 14 21 25 25 23 22 21 21
30 30 33 36 36 34 30 24 24 24 23 23 20 11 4 6 6 4 9 7 1 2 3 4 5 5 6 4 3 4 3 2 5 4 1 3 3 4 4 3 4 3 3 3 2 4 2 4 3 4 2 7 9 5 5 5 4 3 3 5 4 5 4 4 3 3 4 2 2 2 1 3 4 2 3 5 5 5 6 9 15 21 24 24 23 23 22 21
30 30 33 35 37 38 33 28 27 24 26 27 16 5 8 10 4 2 6 5 1 1 3 3 6 5 3 3 3 5 4 3 4 5 2 4 4 4 5 6 6 4 4 3 2 3 2 5 5 2 0 6 7 4 5 6 2 1 2 4 2 4 4 1 2 5 3 2 3 2 3 4 4 1 2 3 3 2 2 6 16 22 23 23 23 23 23 22
31 31 34 36 40 42 36 34 32 26 29 26 10 5 10 7 3 3 2 3 3 4 5 3 3 4 3 2 2 5 4 1 5 4 2 3 3 5 4 4 8 8 5 5 3 2 2 4 5 2 2 2 2 2 4 3 3 2 2 3 4 3 6 3 2 1 4 1 3 2 3 3 0 1 2 1 2 2 1 6 15 22 22 23 24 25 24 23
35 34 36 39 42 42 39 39 35 31 31 21 7 6 7 3 4 5 2 3 3 5 7 3 3 4 4 3 4 7 4 2 4 4 3 3 3 6 5 4 7 12 10 5 2 3 4 3 4 1 1 1 1 3 5 4 4 4 3 5 3 2 4 3 1 2 3 3 4 1 3 4 1 2 2 1 2 4 4 6 11 17 20 22 25 27 26 23
38 36 37 41 42 40 42 41 36 35 27 13 7 10 5 3 7 6 5 5 4 4 5 4 5 4 5 5 4 6 6 4 5 4 4 3 4 6 8 4 7 15 18 9 1 2 4 1 4 1 2 1 2 4 3 4 3 4 4 3 3 3 2 2 2 1 1 3 4 2 2 3 4 4 3 4 8 8 6 6 8 13 19 24 28 29 27 24
40 32 30 39 41 39 40 40 38 34 19 6 9 11 3 3 7 9 11 7 3 4 4 4 3 2 3 5 2 4 6 6 7 5 4 4 4 5 8 4 5 12 17 13 5 1 3 2 4 1 1 1 2 2 3 2 1 3 2 1 2 2 3 2 2 2 2 3 3 4 2 3 5 6 8 11 12 11 10 8 10 15 23 29 31 31 29 26
38 23 15 29 37 37 39 39 36 26 11 5 9 7 2 3 6 12 17 10 3 4 4 3 3 3 3 3 1 3 5 4 7 5 4 4 3 4 5 4 4 5 7 9 6 1 3 3 3 2 2 1 2 2 6 7 4 3 3 2 1 1 2 1 1 2 3 3 2 3 5 5 4 3 8 10 10 12 14 13 13 19 27 32 33 32 29 25
32 13 7 18 28 34 38 32 22 13 5 5 6 3 3 3 4 8 15 13 7 4 3 3 4 4 4 3 2 3 3 3 5 4 3 5 3 2 5 6 7 7 5 4 4 3 2 3 3 2 1 3 5 5 4 5 5 5 5 6 6 4 3 2 3 1 2 2 3 3 6 7 4 2 4 5 6 12 16 15 15 23 31 34 34 32 27 23
24 7 4 13 19 29 32 18 6 6 5 6 5 4 5 5 4 6 9 10 6 3 3 2 2 3 4 4 3 4 4 3 3 3 2 4 4 2 4 7 11 12 8 3 3 2 2 3 3 3 4 5 5 3 2 3 2 3 3 4 5 4 5 5 5 3 2 1 1 2 3 6 2 1 3 4 6 12 18 19 20 27 35 36 35 33 27 21
17 6 6 13 18 26 23 7 2 5 3 2 3 4 6 5 5 6 6 6 4 3 3 2 2 3 3 3 4 4 4 3 4 5 2 2 3 1 2 7 11 10 6 2 2 3 3 2 2 2 2 3 4 2 2 2 3 2 3 2 4 3 2 4 4 2 2 4 2 2 4 5 2 2 2 2 6 11 18 24 25 28 33 34 34 32 28 23
13 7 8 16 22 25 17 4 5 8 3 1 3 3 4 4 5 7 6 6 5 3 3 2 2 4 3 2 4 5 5 4 3 5 3 2 2 1 0 6 8 6 3 2 4 7 5 2 3 2 2 3 3 1 1 2 0 3 3 2 3 2 4 2 1 2 2 5 6 4 7 5 2 3 3 3 5 8 14 21 23 23 26 30 33 31 27 24
11 5 5 15 23 21 10 1 2 6 5 4 3 4 4 3 4 8 6 5 6 4 3 2 3 3 3 2 3 3 5 3 2 2 2 2 2 1 2 2 4 2 2 3 5 9 6 2 4 5 6 6 5 3 3 2 2 2 2 3 4 5 7 4 1 3 6 4 7 6 9 4 2 1 3 3 4 5 11 17 19 20 23 29 33 31 27 23
9 4 2 8 14 12 8 4 1 3 5 5 3 4 6 4 2 6 7 5 6 6 4 2 3 4 2 3 4 3 4 2 2 3 3 3 1 1 3 3 4 2 3 5 6 6 3 1 4 7 9 9 6 4 3 4 4 4 5 6 6 7 9 6 3 5 6 3 4 8 6 2 2 2 4 4 5 6 9 13 17 21 25 29 31 29 26 22
6 3 4 5 6 6 6 5 4 2 2 5 3 1 6 6 2 3 7 5 6 8 4 2 2 4 3 5 5 4 4 3 3 3 3 2 1 2 2 2 3 2 2 4 4 4 3 1 6 8 9 7 2 2 3 4 5 8 7 8 8 7 8 9 9 7 5 4 8 8 5 4 6 6 7 7 6 6 8 13 20 24 26 27 25 24 24 21
3 3 7 9 5 3 4 5 7 4 2 2 2 0 3 6 4 4 5 2 3 8 4 1 3 5 5 6 4 2 3 2 2 3 2 2 1 1 3 1 0 0 1 2 1 3 3 3 6 5 7 7 0 1 3 4 3 4 7 11 13 11 13 15 14 10 8 9 11 5 8 8 8 6 8 11 12 13 16 20 23 22 21 20 19 20 22 20
4 3 6 9 5 2 3 6 8 6 2 3 2 1 3 6 6 3 2 2 1 4 4 3 5 8 7 5 5 4 5 4 4 4 3 2 2 2 1 2 1 1 2 2 0 2 3 3 5 4 7 10 3 0 3 5 4 3 6 12 13 13 14 15 14 10 9 8 6 2 6 9 7 6 8 11 14 16 17 18 19 19 18 16 15 18 20 20
5 3 5 6 4 2 4 7 7 4 3 4 2 3 4 5 6 3 1 4 3 1 4 8 8 6 7 6 6 7 8 6 4 5 6 4 2 3 3 3 2 1 1 2 1 1 3 2 1 4 5 7 3 2 2 4 5 5 9 13 9 7 8 11 9 5 3 4 6 3 6 9 5 7 7 7 9 9 12 16 18 19 19 17 16 19 21 22
11 7 6 6 3 3 4 4 5 3 2 4 4 3 4 6 8 5 2 6 9 4 5 11 9 4 5 7 10 12 12 10 8 7 9 9 7 7 6 5 5 4 2 3 2 2 4 2 2 3 5 6 3 4 3 2 1 4 12 16 10 7 7 7 6 6 6 7 8 6 8 10 4 7 6 7 9 12 16 18 18 18 19 19 21 22 23 22
16 12 10 6 2 4 5 3 4 4 3 5 5 4 4 6 6 7 2 6 12 11 9 11 8 4 4 8 13 16 15 15 15 11 8 9 9 8 8 6 6 6 5 4 2 2 4 4 2 3 5 3 1 4 5 4 1 5 11 15 13 11 9 3 3 7 9 8 6 8 9 8 3 6 5 7 9 13 17 19 19 20 22 22 24 24 22 20
Wind_Direction
240 241 241 242 240 239 240 240 239 241 246 247 250 252 251 252 255 257 262 267 268 275 281 285 291 294 299 302 305 309 311 314 316 320 321 317 293 184 160 148 118 34 20 10 355 336 318 312 311 336 349 359 12 35 49 37 33 29 94 88 7 184 191 182 183 190 173 284 293 330 344 333 302 322 328 321 305 303 305 299 298 299 304 318 326 330 327 326
246 247 248 250 249 250 250 249 250 250 252 254 257 258 259 259 258 260 262 266 270 273 278 282 287 291 296 301 304 309 312 314 314 315 321 323 148 139 131 114 15 349 348 344 332 315 296 289 301 321 337 359 13 29 42 26 36 58 109 79 256 203 207 198 187 196 187 299 292 309 325 306 294 311 326 322 305 318 316 308 314 325 333 335 334 333 328 324
246 248 249 251 253 253 254 254 254 254 255 256 258 259 259 259 258 261 264 265 268 270 274 279 284 289 295 300 304 311 316 317 315 310 330 119 131 128 99 2 337 327 328 329 319 300 274 254 290 303 316 34 22 17 33 25 34 64 96 71 247 217 234 243 225 232 254 292 295 308 316 306 308 308 312 306 309 314 300 300 312 331 331 332 338 337 331 331
245 246 247 248 251 253 254 254 254 254 255 255 256 259 259 260 259 260 264 264 266 269 271 276 281 287 293 298 304 310 320 321 312 181 145 137 138 141 5 337 326 319 322 326 312 281 257 248 276 291 316 50 23 5 22 17 19 113 135 170 225 185 264 271 271 286 289 297 289 301 313 310 314 311 295 306 331 308 297 315 323 321 322 327 337 343 347 354
245 246 247 247 248 250 252 252 252 252 251 251 252 254 256 258 258 259 262 265 267 270 272 276 280 286 290 295 302 306 327 341 145 144 152 173 187 245 308 325 319 314 319 323 301 252 242 248 263 280 17 28 32 31 15 36 79 175 213 227 220 155 249 292 316 324 315 310 295 299 307 306 312 305 289 288 273 278 295 320 316 314 318 325 337 349 359 5
247 247 246 247 248 248 249 251 251 250 249 249 249 252 254 257 260 261 264 268 270 273 275 277 281 285 289 292 296 301 316 322 200 182 217 233 254 277 293 305 306 304 311 320 291 238 234 237 242 237 63 36 33 54 57 138 146 217 268 281 277 222 250 291 309 313 310 306 298 296 295 299 305 302 296 277 263 278 296 305 308 318 330 334 347 358 3 7
248 248 247 246 247 247 247 248 249 249 249 251 251 253 256 259 262 264 267 269 271 274 276 279 283 284 288 289 291 295 282 265 262 258 254 252 263 273 279 287 292 292 299 313 276 223 230 228 216 183 93 40 293 148 85 195 184 162 267 298 305 274 267 292 305 304 301 295 294 296 291 291 290 294 306 290 285 303 314 317 332 348 354 354 6 11 12 10
250 250 249 247 247 247 247 248 249 250 251 252 254 256 258 261 263 265 268 270 271 274 276 279 282 282 285 286 288 290 276 273 275 265 259 256 257 263 268 275 281 280 284 299 274 222 231 228 218 204 124 14 218 194 126 294 224 162 236 282 296 283 287 301 304 300 299 297 298 297 283 282 284 279 286 290 307 2 23 23 29 19 9 5 358 1 12 11
251 251 250 249 248 248 248 249 250 251 253 254 256 258 260 262 264 266 268 269 271 272 274 276 278 280 281 280 283 286 279 281 278 261 257 256 255 258 263 269 268 266 271 282 272 235 233 228 226 227 230 228 192 190 138 151 264 196 229 283 293 294 301 304 300 298 299 299 296 291 283 289 303 287 280 309 18 45 31 31 46 28 12 6 354 350 352 354
250 250 250 249 248 249 249 250 251 252 253 255 257 259 260 262 263 266 267 268 270 270 272 273 275 277 276 274 265 264 279 279 266 254 253 255 257 258 261 262 257 256 262 267 264 247 238 232 233 226 238 237 164 168 152 156 260 249 283 297 292 297 303 300 292 291 294 293 284 259 275 292 331 264 278 46 51 45 30 47 49 19 13 11 358 341 337 339
249 249 248 248 248 248 248 249 251 252 254 256 257 259 260 262 263 265 267 270 271 272 274 273 275 273 272 269 239 233 271 270 258 258 254 256 257 260 263 258 251 250 252 250 245 245 240 237 229 211 226 211 159 198 209 205 283 314 322 305 297 309 307 295 287 288 290 292 282 229 256 298 79 204 157 57 46 40 39 46 38 20 21 14 353 342 337 335
246 246 246 246 246 247 247 249 250 251 254 256 258 260 262 264 265 268 269 271 271 272 272 271 272 270 269 265 249 251 268 267 265 267 262 263 263 261 260 255 250 244 239 233 229 240 246 240 230 225 228 185 160 321 205 209 321 319 351 320 308 336 324 298 294 291 203 270 307 158 276 318 248 216 93 56 40 28 27 33 33 30 32 23 6 351 345 340
243 244 244 245 245 246 246 248 250 252 254 257 260 262 265 266 267 268 269 268 270 269 270 270 270 271 267 262 261 265 268 265 265 266 264 265 265 261 252 247 242 233 230 234 247 255 249 238 228 225 221 187 173 185 194 27 355 306 13 28 320 349 327 301 47 116 49 285 258 120 286 292 263 248 58 43 21 18 24 32 32 39 45 34 25 0 357 347
241 242 244 243 244 246 247 250 252 255 258 260 262 263 265 265 266 267 267 268 269 269 269 268 268 269 259 258 267 268 263 261 258 258 260 260 259 254 244 237 232 232 240 251 258 255 238 224 218 213 206 197 170 148 338 5 19 312 359 35 353 350 280 294 347 254 16 316 199 141 223 265 275 289 28 23 5 15 30 42 38 47 55 39 36 16 5 356
240 241 242 243 244 245 248 251 253 256 258 260 261 262 262 263 265 265 267 268 268 268 267 266 266 264 260 263 266 265 259 256 253 251 252 253 251 242 235 232 234 240 247 249 242 226 210 202 201 191 177 183 153 112 16 352 11 17 334 313 333 176 266 308 336 213 146 359 131 127 205 271 279 287 20 7 353 8 37 59 60 63 64 54 48 36 21 16
238 239 241 243 245 246 249 250 252 255 256 258 259 259 260 262 263 264 265 265 265 265 264 265 261 253 259 270 265 260 257 251 249 248 245 246 244 237 233 231 232 234 232 225 211 193 185 181 177 163 155 156 127 93 46 356 338 1 185 250 275 207 277 319 346 20 69 96 50 72 222 279 284 285 348 359 354 12 53 76 78 77 73 66 59 52 45 37
238 240 242 243 244 245 247 248 250 252 253 255 255 256 258 259 260 262 261 260 261 261 261 259 254 254 258 261 262 258 255 249 244 241 238 239 236 230 223 215 214 215 206 195 191 183 181 172 160 163 111 93 104 96 63 329 287 312 15 228 250 217 242 301 310 353 32 62 9 17 219 256 275 289 339 6 10 35 76 85 81 82 77 73 70 63 55 48
241 241 241 241 242 242 242 245 246 247 249 250 250 252 254 255 257 259 259 259 258 260 265 243 223 274 262 247 250 255 254 244 235 233 229 226 219 210 203 202 205 198 173 163 176 174 176 159 133 135 32 50 106 113 153 228 218 218 197 204 252 236 233 262 269 313 15 20 343 344 273 268 277 293 359 21 30 65 87 89 86 86 83 81 76 69 65 61
241 240 239 238 237 237 238 240 241 242 243 243 244 246 250 257 260 261 260 252 240 235 255 223 196 193 246 247 256 252 247 234 226 226 220 211 203 194 188 185 184 174 153 145 172 164 158 113 97 167 223 183 182 172 199 215 193 194 188 166 193 227 249 245 249 267 350 353 296 250 247 269 280 302 9 24 52 82 92 94 89 88 85 82 79 75 74 72
238 235 233 233 232 234 235 237 238 239 238 238 238 240 248 258 265 267 257 246 242 241 249 239 223 231 246 273 276 236 220 217 220 220 210 203 197 186 173 163 158 158 149 150 172 156 147 139 177 219 207 195 206 203 205 188 140 146 147 152 189 221 265 259 259 286 126 194 269 230 226 265 277 322 5 21 67 78 84 91 86 86 86 84 84 82 81 79
231 228 226 226 227 229 231 233 235 236 235 233 232 232 237 234 236 277 277 264 262 256 254 253 248 247 249 253 252 228 216 221 229 220 208 199 188 177 172 160 142 151 212 133 121 104 126 165 224 231 208 192 206 204 203 158 123 119 146 212 252 223 254 259 259 304 12 166 265 327 284 275 287 9 14 31 63 60 67 88 86 89 90 89 91 90 91 92
224 221 220 222 223 225 227 230 233 234 232 228 228 228 228 230 240 268 291 287 276 268 260 254 249 248 247 243 241 237 226 227 230 215 204 193 186 186 178 160 144 176 197 112 103 61 103 213 242 238 177 133 106 142 173 198 193 196 145 196 269 236 270 287 290 334 25 171 266 351 325 280 332 50 31 46 67 66 75 93 95 99 98 97 99 99 102 102
221 217 216 219 220 223 225 227 230 232 231 227 227 227 230 243 252 272 288 287 280 272 260 253 248 246 245 241 239 235 226 228 230 215 206 196 188 190 178 158 147 150 149 178 168 154 193 241 246 227 157 145 120 107 131 141 188 206 163 172 251 233 293 283 293 336 16 105 257 356 327 287 101 87 47 58 83 83 82 93 97 102 103 103 107 107 107 106
218 214 214 215 216 220 222 225 229 231 231 229 230 228 232 246 255 289 293 276 281 270 256 252 247 245 244 241 237 232 227 229 231 217 210 199 183 179 184 169 138 141 191 202 185 187 228 245 218 132 139 167 179 129 135 148 218 240 199 197 227 219 212 229 278 334 356 16 23 61 341 303 253 132 77 76 90 82 81 91 92 99 107 110 114 113 111 107
216 213 211 211 213 216 218 225 229 231 232 231 232 228 228 236 246 322 321 296 286 268 254 244 238 240 237 234 231 222 222 229 228 220 209 199 186 170 177 176 158 196 206 177 171 217 251 250 154 108 101 151 163 182 182 170 190 284 230 208 216 219 221 232 327 16 13 345 340 48 351 296 313 325 180 162 80 68 72 82 90 104 116 121 121 117 114 110
216 212 207 208 209 207 212 225 229 229 230 233 232 221 221 217 165 12 20 14 287 243 199 207 211 220 217 217 208 192 207 238 219 213 201 195 194 179 160 164 152 206 180 143 152 222 253 262 162 159 149 146 168 222 220 166 141 289 250 205 208 205 194 200 162 105 138 250 303 32 183 257 313 313 195 165 106 84 75 74 103 127 130 131 127 123 120 114
214 209 204 205 204 202 207 217 224 223 225 232 226 208 205 186 148 91 51 356 276 192 148 170 173 181 194 188 174 165 179 198 180 194 189 187 194 187 181 173 128 184 160 130 179 236 196 74 69 145 151 158 189 232 218 162 137 230 245 152 153 167 177 183 157 152 217 251 323 357 127 229 289 285 199 148 124 114 152 144 147 150 143 140 136 131 126 120
212 206 202 203 204 206 207 210 216 214 215 222 209 194 183 163 157 117 80 288 266 132 131 163 159 170 175 166 166 161 141 140 141 182 182 180 188 183 198 201 166 171 159 144 210 262 154 165 190 165 156 192 208 221 189 160 152 234 194 122 128 148 153 137 123 138 311 358 310 306 73 234 265 275 298 147 155 181 197 196 187 172 158 150 146 139 131 126
212 204 202 202 205 207 207 209 210 205 206 200 181 178 161 146 144 93 82 240 213 112 126 152 151 161 152 155 171 162 116 121 115 166 169 175 184 173 183 194 156 140 134 146 208 255 125 210 211 155 157 210 212 223 184 171 183 186 140 101 82 85 85 85 104 107 47 40 253 249 193 206 269 281 276 195 217 211 193 192 193 182 170 160 154 147 138 131
216 208 202 199 201 203 204 208 204 196 194 185 172 163 149 139 124 104 213 234 190 113 123 150 165 160 145 145 182 189 119 70 109 138 149 165 175 154 126 147 127 124 82 9 233 248 332 192 227 157 182 187 148 92 183 172 154 139 119 77 63 50 49 52 67 88 69 272 246 238 213 195 270 277 228 190 214 186 161 166 192 192 182 171 162 153 144 137
220 214 205 200 203 204 204 206 199 191 188 180 167 156 149 134 86 175 216 238 31 141 118 145 179 148 152 149 167 176 98 46 135 139 140 146 156 142 123 133 108 93 18 331 283 304 340 140 254 229 185 129 102 60 21 40 116 121 103 84 89 15 24 32 3 51 124 252 257 263 250 177 217 264 249 211 211 173 165 173 182 192 188 176 166 158 149 143
220 215 209 206 208 206 206 210 204 193 188 178 168 160 150 123 215 214 222 62 83 201 148 166 182 152 165 130 115 163 111 100 169 144 142 142 157 173 163 172 159 93 327 244 237 334 293 233 262 291 188 159 117 71 39 8 36 91 98 99 99 346 4 355 312 194 217 243 260 281 195 186 228 248 237 215 214 216 227 210 187 186 184 176 169 163 156 150
218 211 208 207 207 205 206 213 211 201 194 181 173 164 141 186 217 217 211 174 216 212 124 123 116 128 146 133 162 177 120 166 190 152 136 116 150 213 255 198 154 121 168 196 176 59 277 287 275 126 221 195 165 140 155 221 143 146 143 129 128 121 131 258 262 260 260 248 236 243 178 205 264 262 222 224 253 260 255 235 203 190 180 173 170 165 161 158
220 213 212 208 207 207 206 212 212 207 202 188 176 161 153 212 223 201 196 200 257 24 77 96 101 110 140 167 218 178 138 201 172 135 109 114 141 217 242 227 177 109 96 133 165 172 205 292 209 175 210 185 179 177 161 146 142 180 163 132 142 152 170 223 218 205 243 266 268 264 189 186 209 238 232 245 281 292 268 236 206 194 183 173 172 170 168 165
223 218 216 210 209 208 207 212 214 212 206 193 181 172 196 210 219 167 190 193 174 53 38 62 106 118 178 232 252 195 189 217 157 128 144 164 176 198 198 206 192 151 127 155 219 165 167 265 250 259 40 158 178 187 126 111 119 232 124 110 154 182 157 169 196 174 177 287 290 230 224 216 187 207 272 270 299 318 263 207 190 190 185 179 179 177 173 171
223 218 215 213 212 209 207 210 213 218 209 193 184 214 209 215 190 171 179 143 152 142 108 72 98 121 201 224 240 222 217 181 149 148 180 191 213 204 198 215 192 179 167 160 190 158 132 271 281 356 32 108 177 187 115 115 184 165 122 173 218 182 119 111 252 54 83 260 270 195 235 285 337 264 299 6 322 319 181 180 180 183 183 183 186 182 178 176
220 214 215 217 215 210 208 210 214 221 210 192 201 224 209 230 183 168 155 125 129 138 137 168 186 163 192 201 203 206 201 166 157 166 190 197 223 195 195 241 189 184 196 180 196 196 150 260 285 99 119 338 60 120 74 60 122 125 176 208 198 120 91 100 233 355 42 247 273 218 221 248 193 236 309 52 255 258 233 199 183 183 186 189 190 185 181 179
221 214 216 222 221 214 210 211 218 222 208 191 229 225 205 214 185 156 152 145 122 141 163 206 198 173 186 195 206 191 182 186 171 171 183 195 240 185 171 210 187 190 202 188 150 236 144 230 292 96 154 290 41 102 73 29 77 122 183 180 109 134 157 102 163 228 252 247 281 296 245 231 201 200 207 202 211 213 208 202 195 193 193 194 194 189 186 185
220 210 217 225 224 218 213 213 219 219 206 194 229 223 195 182 189 178 170 154 113 158 194 224 193 146 173 176 171 172 182 187 169 174 186 181 226 192 168 188 192 199 202 181 166 241 131 163 270 310 202 246 38 100 174 220 41 74 111 116 74 157 171 153 153 172 204 230 278 299 293 249 230 198 179 196 201 187 183 194 202 201 198 197 195 191 190 189
207 201 222 226 221 220 216 214 214 211 202 214 222 215 165 162 194 190 181 174 157 173 202 218 179 163 176 171 148 170 187 192 173 183 210 184 192 206 194 188 156 172 188 174 178 185 117 168 232 299 321 189 177 206 191 187 172 131 144 172 195 133 127 198 216 122 141 175 219 276 280 264 253 197 183 197 193 178 183 188 194 200 200 199 196 191 190 190
197 198 238 220 217 219 211 206 205 200 199 228 219 205 181 165 173 185 184 185 184 179 185 184 178 174 160 165 195 180 171 187 190 201 226 198 182 199 207 188 156 144 127 141 187 194 162 168 172 185 210 193 227 246 198 185 180 164 177 187 184 167 130 177 251 199 128 172 183 209 268 270 250 199 201 203 183 185 190 183 184 197 199 199 196 191 189 190
194 200 225 204 210 210 199 190 192 190 203 220 204 181 168 149 155 176 181 183 179 171 169 159 172 169 160 173 179 167 161 169 203 219 249 218 202 197 200 177 158 151 135 124 195 182 125 119 139 197 210 215 248 270 162 183 163 142 196 195 169 161 142 164 221 222 143 201 153 131 267 277 269 230 248 235 202 193 189 182 185 195 198 198 196 192 192 194
190 190 191 185 191 195 189 181 201 194 210 216 157 152 160 151 157 169 174 181 173 156 166 174 187 183 191 185 160 165 177 169 190 203 241 261 233 273 198 167 155 147 138 134 174 139 114 122 152 258 297 303 314 351 80 86 92 157 239 179 151 182 162 176 208 165 163 211 156 110 253 262 295 323 315 232 194 184 186 189 192 197 199 199 197 194 196 199
177 176 175 171 174 183 188 191 198 198 207 129 122 142 160 159 165 166 172 186 178 154 156 173 192 190 196 163 150 175 185 177 199 199 193 219 218 312 148 175 175 166 154 167 165 165 175 162 142 165 310 323 327 337 335 347 187 209 227 179 173 144 97 88 93 99 235 214 152 178 245 246 285 339 37 96 152 170 192 198 200 201 202 201 198 197 200 203
162 154 173 177 178 185 198 235 184 198 194 164 168 177 159 156 191 181 170 172 176 160 150 177 171 154 153 133 132 173 181 178 195 176 171 209 220 359 13 252 235 208 126 105 137 158 174 180 160 180 218 232 229 217 212 226 207 198 198 195 197 168 155 163 131 176 234 200 143 203 242 247 315 15 84 107 142 175 206 208 208 209 207 205 203 203 206 207
161 149 152 184 192 204 225 240 184 188 195 184 185 185 173 173 200 184 174 176 180 157 123 136 139 120 136 158 152 186 202 174 138 159 185 202 232 351 19 346 320 343 72 86 106 132 139 225 200 205 227 227 215 213 193 138 146 195 208 196 196 196 186 174 157 198 210 167 183 225 220 204 263 192 159 190 190 202 214 206 208 212 209 208 209 212 212 210
157 169 155 158 200 229 234 226 201 173 184 185 182 199 188 180 143 177 190 193 179 164 125 46 143 152 176 173 165 189 196 158 141 174 184 176 233 327 10 20 354 355 62 80 91 109 96 246 222 219 241 238 174 186 202 156 175 201 204 207 210 203 187 191 211 208 150 158 237 233 152 173 239 203 187 207 203 215 223 207 208 212 211 211 214 216 215 215
147 166 163 155 163 216 222 204 182 155 84 141 165 87 196 196 191 182 189 185 169 174 166 1 209 194 181 165 157 162 165 165 191 191 164 126 141 354 358 350 314 165 105 72 67 114 116 244 232 212 254 261 100 76 209 185 205 208 199 216 218 202 193 202 216 206 170 206 245 215 151 201 238 205 192 204 201 206 211 208 209 211 211 213 214 215 216 224
135 125 156 162 157 161 174 155 147 153 129 97 123 209 196 205 211 188 132 102 166 205 193 204 219 207 190 157 130 147 176 179 188 189 167 148 172 164 335 289 244 169 117 107 59 122 125 248 236 197 256 263 244 189 213 193 214 229 219 228 225 210 205 210 216 211 200 232 270 116 169 227 235 185 191 209 211 212 215 218 220 219 219 219 218 219 225 239
173 151 149 156 149 114 134 134 132 158 169 137 183 220 176 184 203 200 122 148 166 248 208 217 227 200 182 170 163 199 209 182 166 177 167 167 187 179 201 225 194 149 127 134 176 183 170 233 206 155 241 260 216 168 204 196 205 221 238 242 225 194 212 222 220 203 172 251 269 223 229 253 225 160 181 217 217 217 227 231 230 227 227 230 233 235 242 253
204 198 167 151 152 146 147 142 133 140 172 175 195 188 167 199 201 184 209 205 198 193 190 212 224 179 167 194 204 219 218 197 206 210 181 188 205 191 198 206 168 154 165 164 164 180 191 219 62 126 226 247 196 174 168 110 57 258 251 244 215 177 208 215 197 188 186 209 231 232 244 257 221 150 179 226 219 216 228 232 233 235 237 241 245 249 256 260
205 203 187 170 169 166 163 149 141 167 202 188 185 176 183 210 180 151 192 234 213 210 206 205 202 163 174 207 216 228 227 217 230 242 212 211 218 198 198 198 169 164 175 171 162 163 174 173 130 180 222 247 181 162 138 90 25 262 249 236 213 205 218 182 143 209 207 189 200 224 238 244 184 134 172 224 220 219 231 237 240 245 246 248 252 255 258 255
Height
1537 1537 1538 1538 1538 1539 1539 1539 1540 1540 1540 1541 1541 1541 1542 1542 1542 1542 1542 1543 1543 1543 1543 1543 1543 1543 1543 1542 1542 1542 1542 1541 1540 1540 1539 1538 1538 1538 1539 1540 1540 1540 1540 1540 1540 1540 1539 1539 1539 1539 1539 1539 1539 1539 1539 1539 1539 1539 1543 1546 1546 1551 1549 1545 1547 1546 1545 1544 1543 1542 1542 1543 1541 1540 1540 1539 1539 1539 1539 1538 1539 1539 1539 1539 1538 1537 1535 1534
1537 1537 1537 1538 1538 1538 1539 1539 1539 1540 1540 1540 1541 1541 1542 1542 1542 1542 1542 1542 1542 1543 1543 1543 1543 1543 1542 1542 1542 1541 1541 1540 1540 1539 1538 1538 1538 1538 1540 1540 1540 1540 1540 1540 1539 1539 1539 1539 1539 1539 1539 1539 1539 1539 1539 1540 1540 1541 1546 1547 1546 1549 1545 1542 1544 1543 1544 1543 1542 1542 1542 1542 1541 1540 1540 1539 1538 1538 1538 1536 1536 1537 1537 1537 1536 1535 1534 1533
1536 1537 1537 1537 1538 1538 1538 1539 1539 1539 1540 1540 1540 1541 1541 1541 1541 1542 1542 1542 1542 1542 1542 1542 1542 1542 1542 1541 1541 1541 1540 1540 1539 1539 1538 1538 1538 1539 1540 1540 1540 1540 1540 1539 1539 1539 1539 1539 1539 1539 1539 1539 1540 1540 1540 1540 1541 1542 1545 1545 1545 1545 1543 1542 1543 1542 1543 1543 1542 1542 1541 1541 1540 1540 1539 1539 1538 1537 1537 1536 1535 1535 1535 1535 1534 1533 1532 1531
1536 1536 1536 1537 1537 1538 1538 1538 1539 1539 1539 1540 1540 1540 1540 1541 1541 1541 1541 1541 1541 1541 1541 1542 1542 1541 1541 1541 1541 1540 1540 1539 1538 1538 1539 1539 1539 1539 1540 1540 1540 1539 1539 1539 1539 1539 1539 1539 1539 1540 1540 1540 1540 1540 1541 1541 1542 1543 1544 1544 1544 1544 1543 1542 1542 1542 1542 1543 1542 1541 1541 1540 1539 1539 1539 1539 1539 1536 1534 1535 1536 1535 1534 1533 1533 1532 1531 1531
1535 1535 1536 1536 1537 1537 1538 1538 1538 1539 1539 1539 1540 1540 1540 1540 1540 1541 1541 1540 1541 1541 1541 1541 1541 1541 1541 1540 1540 1540 1541 1540 1538 1538 1539 1539 1539 1539 1539 1539 1539 1539 1539 1539 1538 1539 1539 1539 1539 1540 1540 1540 1541 1541 1542 1542 1542 1543 1543 1542 1543 1544 1543 1541 1542 1542 1542 1542 1542 1541 1541 1539 1538 1538 1538 1539 1540 1536 1533 1535 1535 1534 1533 1533 1532 1531 1531 1530
1534 1535 1535 1536 1536 1537 1537 1537 1538 1538 1538 1539 1539 1539 1539 1539 1540 1540 1540 1540 1540 1540 1540 1540 1540 1540 1540 1540 1540 1540 1541 1541 1539 1538 1539 1539 1539 1539 1539 1539 1539 1539 1539 1538 1538 1538 1539 1539 1540 1540 1541 1541 1542 1542 1542 1543 1543 1543 1543 1542 1542 1543 1542 1541 1541 1541 1541 1541 1541 1541 1540 1539 1538 1536 1536 1537 1536 1534 1533 1534 1534 1533 1533 1532 1531 1531 1530 1530
1533 1534 1534 1535 1535 1536 1536 1536 1537 1537 1538 1538 1538 1538 1538 1538 1538 1539 1539 1539 1539 1539 1539 1539 1539 1540 1539 1539 1539 1539 1540 1539 1538 1538 1538 1538 1538 1538 1538 1538 1539 1538 1538 1538 1538 1538 1539 1539 1540 1540 1541 1542 1542 1543 1543 1543 1543 1544 1543 1542 1542 1542 1541 1541 1541 1541 1541 1540 1539 1540 1538 1538 1538 1537 1535 1533 1532 1533 1533 1533 1533 1532 1532 1531 1531 1530 1530 1530
1532 1532 1533 1534 1534 1535 1535 1535 1536 1536 1536 1536 1537 1537 1537 1537 1537 1537 1538 1538 1538 1538 1538 1538 1539 1539 1539 1539 1538 1538 1537 1537 1537 1537 1537 1537 1537 1537 1537 1537 1538 1538 1538 1538 1538 1538 1538 1539 1540 1540 1541 1542 1542 1542 1543 1543 1543 1544 1543 1542 1542 1541 1541 1540 1540 1539 1539 1539 1538 1538 1537 1536 1537 1537 1534 1531 1532 1533 1532 1532 1532 1532 1532 1531 1530 1530 1530 1530
1530 1531 1532 1532 1533 1533 1534 1534 1534 1535 1535 1535 1535 1536 1536 1536 1536 1536 1537 1537 1537 1537 1537 1537 1537 1537 1538 1538 1538 1537 1535 1535 1535 1535 1535 1536 1536 1536 1536 1536 1537 1537 1537 1537 1537 1538 1538 1539 1539 1540 1541 1541 1542 1542 1543 1543 1543 1543 1542 1542 1541 1540 1540 1539 1538 1537 1537 1537 1537 1537 1535 1534 1536 1535 1533 1531 1532 1533 1533 1532 1532 1532 1531 1531 1531 1530 1530 1530
1529 1529 1530 1530 1531 1532 1532 1533 1533 1533 1534 1534 1534 1535 1535 1535 1535 1535 1535 1536 1536 1536 1536 1536 1536 1536 1536 1536 1537 1536 1533 1534 1534 1534 1534 1534 1535 1535 1535 1536 1536 1536 1536 1537 1537 1537 1538 1538 1539 1540 1540 1541 1541 1542 1542 1543 1542 1542 1542 1542 1541 1540 1538 1537 1536 1536 1536 1536 1535 1536 1534 1534 1535 1535 1533 1532 1533 1533 1533 1532 1532 1531 1531 1531 1531 1530 1530 1529
1527 1528 1528 1529 1529 1530 1530 1531 1531 1532 1532 1533 1533 1533 1534 1534 1534 1534 1534 1534 1534 1535 1535 1535 1535 1535 1535 1535 1535 1534 1532 1533 1533 1533 1534 1534 1534 1534 1534 1535 1535 1535 1535 1536 1536 1537 1537 1538 1539 1539 1540 1540 1541 1542 1542 1542 1542 1542 1542 1541 1540 1539 1537 1536 1535 1534 1535 1534 1534 1535 1534 1534 1535 1534 1533 1533 1533 1533 1532 1531 1531 1531 1530 1531 1530 1530 1530 1529
1526 1526 1527 1527 1528 1528 1529 1530 1530 1531 1531 1531 1532 1532 1533 1533 1533 1533 1533 1533 1533 1533 1533 1533 1533 1533 1534 1533 1532 1531 1531 1532 1532 1532 1532 1532 1533 1533 1533 1534 1534 1534 1534 1535 1536 1536 1537 1538 1538 1539 1539 1540 1541 1542 1541 1542 1542 1542 1542 1541 1540 1539 1536 1534 1534 1533 1534 1534 1533 1534 1534 1533 1533 1532 1532 1533 1533 1533 1531 1530 1531 1530 1530 1530 1530 1530 1530 1529
1524 1524 1525 1526 1526 1527 1527 1528 1529 1529 1530 1530 1530 1531 1531 1531 1531 1531 1531 1531 1532 1532 1532 1532 1532 1532 1533 1531 1529 1529 1530 1530 1530 1530 1530 1531 1531 1531 1532 1532 1533 1533 1534 1534 1535 1535 1536 1537 1538 1539 1539 1540 1541 1541 1541 1542 1542 1541 1543 1543 1542 1541 1537 1533 1534 1534 1533 1534 1533 1535 1537 1532 1529 1529 1531 1533 1533 1532 1531 1530 1530 1530 1530 1530 1530 1530 1530 1529
1522 1523 1523 1524 1525 1525 1526 1527 1527 1528 1528 1529 1529 1529 1529 1529 1530 1530 1530 1530 1530 1530 1531 1531 1531 1531 1531 1529 1527 1528 1528 1528 1529 1529 1529 1529 1530 1530 1531 1531 1532 1532 1533 1533 1534 1535 1535 1536 1537 1538 1539 1539 1540 1541 1542 1543 1542 1543 1544 1545 1547 1547 1538 1533 1535 1534 1533 1533 1532 1534 1539 1533 1527 1528 1531 1532 1531 1530 1529 1530 1530 1530 1531 1531 1531 1531 1530 1529
1520 1521 1522 1522 1523 1524 1524 1525 1525 1526 1526 1527 1527 1527 1528 1528 1528 1528 1529 1529 1529 1529 1529 1530 1530 1530 1529 1527 1526 1526 1526 1526 1527 1527 1527 1528 1528 1529 1529 1530 1531 1531 1532 1532 1533 1534 1535 1536 1537 1537 1538 1539 1539 1541 1543 1544 1544 1546 1545 1545 1551 1550 1540 1534 1534 1534 1533 1533 1533 1535 1538 1535 1528 1528 1530 1530 1529 1528 1529 1530 1531 1531 1532 1532 1531 1531 1530 1530
1518 1519 1520 1520 1521 1522 1522 1523 1523 1524 1525 1525 1526 1526 1526 1527 1527 1527 1527 1527 1528 1528 1528 1529 1528 1529 1529 1525 1524 1524 1524 1525 1525 1525 1526 1526 1527 1527 1528 1529 1530 1530 1531 1532 1532 1533 1534 1535 1536 1538 1538 1539 1540 1542 1545 1547 1547 1548 1549 1546 1547 1548 1544 1539 1534 1534 1535 1534 1534 1535 1537 1536 1529 1527 1529 1529 1528 1528 1529 1531 1532 1532 1532 1532 1532 1532 1531 1530
1516 1517 1518 1518 1519 1520 1520 1521 1522 1522 1523 1524 1524 1525 1525 1525 1525 1526 1526 1526 1526 1526 1527 1527 1527 1528 1526 1523 1522 1522 1522 1523 1523 1524 1524 1525 1526 1526 1527 1528 1528 1529 1530 1531 1532 1533 1534 1535 1536 1537 1538 1540 1541 1542 1548 1552 1548 1547 1551 1549 1547 1548 1547 1541 1535 1534 1535 1534 1536 1537 1537 1535 1529 1527 1530 1530 1530 1530 1530 1532 1533 1533 1533 1533 1533 1532 1531 1531
1514 1514 1515 1516 1517 1517 1518 1519 1520 1521 1522 1522 1523 1523 1524 1524 1524 1524 1524 1524 1525 1525 1526 1526 1527 1528 1524 1520 1520 1520 1521 1521 1522 1522 1523 1523 1524 1525 1526 1527 1527 1528 1529 1531 1532 1533 1534 1535 1537 1538 1539 1542 1541 1542 1547 1547 1541 1540 1545 1546 1546 1547 1547 1544 1538 1536 1535 1535 1536 1538 1537 1534 1529 1529 1531 1532 1531 1530 1531 1533 1533 1534 1534 1534 1533 1532 1532 1531
1511 1512 1513 1514 1515 1515 1516 1517 1518 1519 1520 1521 1522 1522 1523 1523 1523 1522 1522 1523 1523 1523 1523 1522 1523 1524 1521 1518 1519 1519 1519 1520 1520 1521 1522 1522 1523 1524 1525 1526 1527 1528 1529 1531 1532 1532 1534 1535 1538 1538 1539 1540 1539 1538 1539 1536 1535 1537 1540 1542 1542 1543 1543 1542 1539 1537 1537 1537 1537 1537 1537 1533 1530 1530 1533 1534 1532 1532 1533 1534 1534 1535 1535 1534 1533 1533 1532 1532
1509 1510 1511 1512 1513 1514 1515 1516 1517 1518 1519 1520 1520 1521 1521 1522 1522 1521 1520 1520 1519 1519 1519 1518 1518 1519 1518 1517 1518 1518 1519 1519 1519 1520 1521 1521 1522 1524 1525 1526 1527 1528 1529 1530 1531 1533 1533 1535 1537 1534 1533 1534 1534 1534 1534 1534 1537 1539 1541 1542 1543 1543 1541 1539 1538 1537 1537 1538 1536 1537 1537 1534 1531 1533 1536 1535 1534 1534 1535 1535 1535 1535 1535 1534 1534 1534 1533 1533
1507 1508 1509 1510 1511 1512 1513 1514 1515 1517 1518 1519 1519 1520 1520 1520 1520 1520 1518 1517 1516 1516 1516 1516 1517 1516 1516 1517 1517 1517 1518 1518 1518 1519 1520 1521 1522 1523 1524 1526 1527 1528 1530 1530 1532 1532 1533 1536 1533 1528 1529 1532 1532 1534 1536 1537 1538 1539 1541 1542 1544 1545 1542 1538 1538 1538 1538 1538 1536 1537 1537 1532 1532 1536 1537 1536 1535 1536 1537 1536 1536 1535 1535 1535 1534 1535 1535 1534
1505 1506 1507 1508 1509 1510 1511 1513 1514 1515 1517 1517 1518 1519 1519 1519 1519 1519 1519 1516 1513 1513 1513 1513 1513 1513 1513 1515 1515 1516 1517 1517 1517 1517 1518 1519 1520 1521 1523 1525 1526 1527 1530 1530 1531 1534 1536 1536 1529 1526 1530 1532 1533 1535 1536 1538 1539 1540 1542 1544 1543 1544 1541 1538 1538 1538 1539 1538 1535 1537 1535 1530 1533 1539 1539 1537 1537 1538 1539 1537 1537 1536 1536 1536 1536 1536 1536 1535
1503 1504 1506 1506 1507 1509 1510 1511 1513 1513 1515 1516 1517 1517 1517 1518 1518 1518 1519 1517 1512 1509 1510 1510 1509 1509 1510 1511 1512 1514 1514 1514 1514 1515 1516 1518 1518 1520 1521 1523 1525 1527 1529 1529 1530 1534 1536 1531 1526 1526 1529 1531 1533 1535 1536 1537 1539 1540 1542 1543 1541 1542 1541 1537 1537 1538 1539 1539 1537 1537 1535 1530 1534 1539 1539 1539 1539 1539 1540 1538 1538 1538 1537 1537 1537 1537 1537 1536
1500 1502 1504 1504 1506 1507 1508 1510 1511 1512 1513 1514 1515 1516 1517 1517 1518 1518 1518 1517 1511 1506 1505 1505 1505 1505 1505 1507 1508 1510 1511 1511 1511 1512 1513 1515 1516 1519 1519 1521 1525 1527 1527 1527 1528 1530 1529 1526 1524 1526 1528 1529 1532 1534 1536 1537 1539 1540 1540 1540 1538 1538 1539 1537 1538 1538 1538 1540 1538 1537 1535 1530 1529 1533 1537 1540 1540 1540 1540 1539 1539 1539 1539 1539 1538 1538 1538 1537
1498 1500 1502 1503 1505 1506 1508 1508 1508 1510 1512 1512 1514 1515 1516 1517 1517 1518 1518 1517 1512 1504 1502 1502 1501 1501 1501 1504 1505 1506 1508 1508 1508 1509 1510 1512 1514 1516 1518 1519 1522 1524 1525 1527 1530 1530 1527 1524 1524 1526 1528 1530 1530 1532 1534 1534 1537 1538 1535 1534 1533 1533 1535 1537 1540 1540 1539 1539 1539 1539 1537 1529 1525 1529 1536 1540 1540 1541 1541 1540 1540 1540 1540 1540 1539 1539 1538 1538
1496 1498 1500 1502 1503 1504 1506 1506 1507 1509 1509 1511 1513 1513 1516 1516 1517 1518 1518 1522 1515 1501 1499 1499 1498 1498 1498 1500 1502 1505 1508 1506 1504 1507 1508 1510 1512 1513 1517 1519 1520 1522 1524 1527 1530 1529 1525 1524 1524 1525 1527 1528 1529 1530 1531 1533 1537 1537 1531 1530 1532 1533 1536 1538 1539 1540 1541 1540 1541 1543 1539 1533 1527 1525 1533 1540 1541 1542 1542 1541 1541 1541 1540 1540 1539 1539 1538 1538
1493 1496 1497 1499 1501 1502 1504 1504 1505 1507 1507 1510 1510 1512 1515 1514 1518 1517 1518 1527 1514 1493 1493 1496 1495 1495 1495 1498 1499 1503 1506 1502 1502 1505 1506 1508 1511 1512 1514 1517 1519 1520 1522 1526 1528 1525 1522 1523 1524 1525 1525 1528 1528 1527 1529 1531 1533 1533 1530 1531 1532 1533 1536 1538 1538 1539 1541 1540 1542 1542 1539 1540 1534 1527 1533 1540 1540 1543 1543 1542 1542 1541 1540 1539 1539 1539 1538 1538
1491 1493 1495 1497 1499 1499 1501 1502 1504 1505 1506 1508 1508 1512 1513 1514 1518 1515 1522 1531 1507 1484 1489 1493 1493 1494 1494 1497 1498 1499 1501 1499 1501 1505 1505 1507 1510 1510 1513 1514 1516 1518 1519 1522 1524 1522 1520 1522 1523 1523 1525 1526 1525 1523 1525 1527 1527 1529 1531 1532 1533 1534 1536 1538 1539 1540 1543 1544 1541 1539 1539 1542 1535 1529 1537 1540 1537 1540 1541 1540 1541 1540 1539 1539 1538 1538 1537 1538
1488 1490 1492 1495 1496 1498 1499 1500 1502 1503 1505 1506 1508 1510 1511 1515 1516 1515 1529 1528 1494 1480 1489 1490 1491 1494 1494 1497 1498 1498 1499 1499 1501 1503 1505 1507 1509 1510 1511 1513 1514 1517 1519 1519 1519 1519 1520 1520 1520 1521 1523 1522 1521 1522 1524 1523 1522 1526 1531 1532 1533 1536 1539 1539 1540 1539 1543 1546 1541 1536 1537 1539 1531 1525 1532 1536 1531 1532 1535 1538 1539 1538 1538 1538 1537 1538 1537 1537
1486 1487 1490 1493 1493 1495 1496 1497 1499 1501 1503 1505 1507 1509 1511 1514 1514 1523 1534 1515 1483 1483 1490 1488 1491 1493 1493 1497 1499 1499 1499 1500 1501 1503 1505 1507 1508 1509 1510 1512 1514 1516 1518 1519 1519 1518 1519 1520 1520 1520 1519 1519 1520 1524 1525 1523 1522 1525 1527 1527 1530 1536 1538 1540 1542 1541 1543 1543 1537 1536 1537 1538 1534 1522 1521 1528 1526 1525 1530 1535 1538 1537 1537 1537 1536 1537 1536 1537
1482 1484 1487 1489 1489 1491 1492 1494 1496 1499 1501 1504 1506 1509 1511 1513 1517 1525 1519 1494 1480 1485 1487 1489 1493 1492 1493 1495 1497 1499 1499 1501 1501 1502 1505 1506 1508 1509 1510 1512 1514 1518 1521 1520 1518 1519 1519 1519 1519 1518 1517 1519 1521 1524 1527 1526 1525 1525 1523 1523 1528 1533 1536 1540 1542 1543 1543 1536 1534 1543 1545 1541 1537 1523 1515 1522 1527 1527 1528 1530 1533 1534 1534 1535 1535 1535 1536 1536
1479 1481 1484 1485 1486 1488 1490 1491 1494 1497 1500 1502 1505 1506 1509 1516 1519 1512 1498 1484 1482 1482 1481 1487 1491 1491 1493 1494 1495 1498 1499 1501 1502 1502 1504 1506 1507 1507 1507 1508 1510 1516 1520 1519 1518 1519 1517 1516 1517 1516 1516 1518 1519 1523 1528 1529 1527 1525 1523 1525 1529 1534 1538 1538 1540 1544 1542 1535 1537 1546 1544 1540 1534 1520 1515 1521 1526 1529 1529 1528 1529 1530 1530 1532 1533 1534 1535 1536
1475 1478 1480 1482 1483 1485 1487 1490 1493 1496 1497 1500 1503 1503 1509 1515 1505 1491 1486 1483 1480 1478 1479 1484 1487 1490 1493 1493 1495 1498 1498 1500 1501 1502 1504 1506 1507 1507 1506 1507 1507 1508 1511 1516 1520 1518 1515 1513 1514 1515 1514 1514 1515 1518 1522 1524 1526 1525 1522 1524 1528 1536 1542 1539 1541 1546 1540 1533 1540 1545 1540 1536 1526 1517 1520 1523 1525 1528 1528 1528 1529 1528 1529 1530 1531 1533 1534 1535
1472 1475 1476 1478 1481 1483 1485 1489 1490 1493 1495 1498 1501 1503 1509 1505 1487 1477 1481 1480 1476 1479 1481 1482 1487 1492 1492 1492 1494 1494 1496 1499 1500 1502 1504 1506 1508 1508 1506 1507 1508 1506 1508 1516 1520 1518 1515 1510 1508 1510 1509 1509 1510 1511 1513 1517 1523 1525 1524 1523 1524 1528 1531 1530 1532 1533 1528 1529 1538 1541 1533 1521 1513 1516 1525 1526 1525 1527 1526 1526 1528 1528 1530 1530 1530 1532 1532 1534
1470 1472 1473 1476 1478 1479 1482 1485 1487 1489 1493 1494 1496 1499 1499 1488 1477 1476 1477 1475 1477 1480 1482 1483 1487 1491 1493 1492 1493 1492 1491 1495 1499 1502 1504 1505 1505 1504 1502 1502 1505 1505 1506 1511 1514 1517 1517 1508 1504 1507 1506 1506 1508 1509 1511 1514 1519 1527 1528 1525 1523 1520 1518 1527 1535 1534 1532 1532 1534 1533 1522 1512 1513 1521 1528 1526 1525 1526 1525 1525 1526 1527 1528 1529 1529 1530 1531 1532
1466 1467 1469 1470 1471 1474 1479 1481 1483 1485 1487 1488 1490 1491 1483 1473 1472 1474 1472 1471 1475 1477 1482 1486 1486 1490 1494 1492 1492 1492 1489 1491 1498 1500 1501 1504 1502 1500 1499 1496 1498 1501 1500 1502 1506 1513 1515 1508 1505 1508 1507 1508 1509 1509 1511 1511 1514 1524 1527 1521 1522 1521 1517 1526 1539 1546 1545 1534 1526 1524 1515 1511 1517 1519 1523 1527 1524 1525 1526 1525 1525 1525 1526 1527 1527 1528 1529 1531
1460 1461 1463 1463 1464 1469 1474 1477 1479 1481 1481 1482 1482 1479 1472 1467 1467 1469 1469 1471 1473 1474 1479 1482 1481 1483 1488 1489 1489 1490 1488 1489 1495 1496 1498 1501 1496 1493 1495 1492 1492 1494 1493 1494 1498 1502 1505 1504 1505 1507 1506 1508 1510 1509 1511 1512 1512 1520 1522 1517 1519 1523 1522 1524 1530 1538 1543 1533 1523 1522 1515 1509 1509 1510 1519 1527 1523 1523 1525 1524 1525 1526 1526 1526 1526 1527 1528 1529
1455 1458 1458 1456 1459 1465 1469 1472 1475 1476 1477 1478 1476 1471 1467 1466 1465 1465 1468 1470 1471 1473 1475 1476 1475 1476 1481 1484 1484 1485 1486 1487 1491 1493 1494 1495 1488 1483 1486 1487 1488 1490 1489 1491 1494 1497 1500 1501 1505 1509 1509 1509 1510 1510 1511 1514 1513 1514 1515 1514 1516 1519 1522 1526 1528 1527 1531 1529 1521 1520 1520 1513 1504 1503 1510 1515 1516 1518 1522 1523 1525 1524 1524 1524 1524 1525 1526 1527
1451 1455 1454 1451 1456 1462 1465 1469 1471 1473 1474 1473 1471 1468 1464 1464 1464 1463 1466 1467 1469 1473 1474 1472 1472 1474 1477 1480 1480 1482 1484 1484 1488 1489 1487 1488 1484 1479 1480 1481 1483 1487 1487 1489 1492 1495 1498 1500 1504 1509 1510 1509 1510 1510 1509 1512 1515 1515 1515 1516 1516 1517 1518 1522 1525 1521 1520 1523 1519 1515 1513 1505 1498 1499 1498 1499 1506 1514 1517 1520 1521 1520 1521 1521 1520 1522 1523 1525
1447 1451 1449 1447 1453 1458 1462 1466 1468 1468 1468 1465 1464 1463 1461 1462 1463 1462 1463 1465 1467 1470 1471 1470 1471 1473 1475 1478 1479 1480 1481 1481 1485 1485 1481 1480 1480 1478 1478 1478 1480 1486 1488 1489 1491 1493 1497 1499 1502 1508 1513 1510 1507 1505 1503 1503 1508 1511 1514 1516 1516 1518 1520 1519 1521 1520 1517 1519 1519 1516 1508 1496 1496 1500 1495 1492 1501 1508 1510 1513 1515 1517 1518 1518 1519 1520 1521 1523
1444 1447 1445 1445 1450 1454 1458 1462 1461 1461 1461 1459 1458 1459 1460 1460 1460 1461 1462 1464 1465 1467 1469 1469 1469 1471 1472 1476 1478 1478 1480 1482 1483 1482 1479 1478 1477 1475 1475 1476 1478 1483 1487 1490 1491 1491 1494 1498 1501 1506 1510 1506 1501 1502 1503 1502 1502 1504 1506 1508 1508 1511 1516 1518 1519 1521 1520 1518 1516 1516 1507 1492 1493 1501 1498 1496 1501 1503 1505 1508 1511 1515 1515 1515 1517 1519 1520 1522
1442 1443 1443 1444 1448 1450 1453 1455 1454 1455 1455 1454 1453 1455 1457 1457 1458 1461 1461 1462 1464 1465 1467 1468 1468 1469 1470 1472 1475 1476 1478 1480 1482 1482 1479 1476 1474 1473 1473 1475 1476 1478 1482 1487 1489 1488 1491 1497 1499 1502 1504 1502 1501 1504 1507 1505 1504 1504 1503 1503 1505 1505 1506 1509 1512 1515 1520 1520 1519 1521 1512 1495 1495 1502 1500 1499 1501 1501 1504 1507 1509 1511 1511 1513 1515 1517 1519 1520
1439 1441 1442 1444 1446 1447 1450 1452 1452 1453 1452 1451 1451 1452 1454 1455 1456 1459 1460 1461 1463 1464 1466 1466 1467 1468 1468 1469 1472 1474 1475 1477 1479 1479 1478 1477 1476 1475 1475 1475 1476 1477 1479 1483 1486 1487 1490 1493 1497 1500 1501 1501 1503 1505 1506 1507 1506 1504 1502 1504 1506 1503 1501 1503 1505 1508 1512 1511 1515 1522 1514 1497 1497 1502 1500 1499 1501 1502 1505 1506 1507 1509 1509 1511 1514 1515 1517 1518
1437 1440 1442 1443 1445 1446 1447 1447 1448 1449 1450 1451 1452 1453 1453 1453 1454 1456 1457 1458 1460 1462 1463 1464 1465 1465 1466 1467 1469 1470 1472 1474 1476 1476 1477 1478 1477 1477 1477 1477 1477 1476 1476 1479 1480 1483 1487 1490 1494 1500 1502 1502 1503 1505 1505 1506 1505 1502 1502 1505 1505 1502 1504 1506 1509 1512 1509 1503 1506 1512 1503 1492 1497 1502 1500 1501 1502 1503 1506 1506 1507 1509 1509 1511 1513 1514 1515 1517
1435 1439 1441 1442 1443 1444 1444 1444 1445 1447 1449 1450 1451 1451 1452 1452 1452 1452 1454 1455 1457 1459 1460 1462 1462 1463 1465 1467 1468 1468 1469 1470 1473 1475 1477 1477 1477 1477 1478 1478 1478 1477 1476 1477 1477 1478 1484 1486 1488 1494 1497 1497 1496 1498 1497 1497 1500 1501 1501 1503 1502 1501 1502 1503 1506 1511 1508 1504 1505 1503 1494 1491 1498 1502 1500 1502 1504 1504 1505 1506 1507 1508 1509 1510 1511 1512 1513 1515
1431 1435 1440 1442 1442 1443 1443 1443 1444 1446 1447 1448 1450 1450 1449 1450 1451 1451 1452 1454 1455 1456 1458 1460 1461 1462 1464 1466 1467 1468 1468 1469 1472 1474 1474 1475 1476 1478 1478 1479 1480 1479 1478 1477 1477 1479 1483 1485 1484 1484 1485 1483 1482 1484 1486 1488 1492 1495 1495 1496 1498 1500 1500 1500 1503 1504 1502 1504 1503 1494 1490 1492 1495 1499 1501 1502 1503 1504 1503 1504 1505 1506 1506 1508 1509 1510 1512 1513
1428 1430 1434 1438 1441 1442 1442 1442 1443 1444 1444 1446 1448 1448 1447 1448 1450 1451 1452 1453 1454 1455 1457 1458 1459 1460 1463 1464 1465 1467 1468 1470 1472 1472 1472 1474 1476 1478 1479 1479 1481 1481 1480 1479 1478 1480 1484 1485 1482 1481 1481 1480 1481 1483 1486 1486 1486 1488 1490 1492 1494 1498 1500 1499 1497 1494 1495 1501 1497 1489 1492 1494 1491 1494 1499 1500 1501 1502 1501 1501 1502 1502 1503 1505 1506 1508 1510 1510
1427 1428 1429 1432 1436 1438 1439 1440 1441 1442 1444 1445 1447 1448 1448 1448 1449 1450 1451 1453 1453 1453 1455 1458 1458 1457 1459 1461 1463 1467 1471 1471 1473 1473 1473 1475 1478 1479 1479 1479 1480 1481 1481 1481 1480 1481 1485 1484 1481 1482 1483 1481 1485 1488 1487 1486 1485 1486 1487 1487 1488 1493 1497 1494 1491 1490 1491 1489 1485 1485 1492 1491 1487 1490 1495 1496 1497 1497 1496 1498 1498 1499 1501 1503 1505 1506 1507 1508
1427 1428 1429 1431 1433 1435 1436 1437 1439 1442 1444 1445 1448 1449 1449 1449 1449 1449 1450 1452 1454 1453 1454 1457 1457 1456 1458 1460 1462 1468 1471 1469 1470 1473 1475 1476 1478 1479 1480 1479 1480 1480 1480 1482 1482 1483 1485 1484 1481 1483 1484 1482 1486 1490 1489 1488 1488 1487 1487 1484 1483 1487 1490 1489 1488 1489 1488 1485 1484 1490 1494 1489 1486 1489 1492 1492 1493 1494 1495 1497 1497 1498 1500 1501 1503 1504 1504 1505
1426 1427 1428 1431 1433 1434 1435 1436 1439 1441 1444 1446 1448 1447 1448 1450 1450 1449 1449 1451 1455 1455 1454 1455 1455 1455 1458 1460 1462 1465 1465 1463 1465 1469 1472 1476 1477 1479 1480 1477 1476 1479 1481 1482 1483 1484 1485 1485 1483 1485 1486 1483 1486 1491 1492 1491 1490 1488 1485 1482 1483 1488 1491 1490 1490 1489 1491 1491 1489 1492 1494 1488 1485 1488 1490 1491 1492 1494 1496 1495 1496 1497 1499 1500 1501 1501 1502 1503
1425 1427 1428 1430 1432 1434 1434 1435 1437 1441 1443 1444 1444 1444 1446 1448 1448 1449 1450 1449 1451 1453 1453 1453 1455 1456 1458 1461 1461 1460 1460 1461 1463 1464 1466 1470 1472 1473 1474 1472 1472 1476 1480 1481 1482 1482 1484 1486 1486 1488 1486 1481 1485 1492 1492 1493 1495 1494 1486 1478 1481 1486 1484 1485 1488 1487 1486 1487 1487 1490 1490 1484 1483 1487 1489 1490 1491 1493 1492 1492 1494 1496 1497 1498 1498 1499 1500 1501
1424 1426 1427 1429 1431 1432 1434 1434 1437 1439 1438 1437 1439 1441 1442 1443 1444 1447 1450 1449 1448 1450 1451 1451 1453 1456 1458 1459 1457 1456 1458 1461 1462 1462 1464 1466 1466 1467 1469 1469 1470 1472 1476 1479 1480 1480 1483 1483 1484 1487 1483 1480 1489 1495 1494 1496 1496 1488 1475 1469 1474 1479 1477 1479 1484 1483 1481 1482 1485 1486 1482 1479 1482 1487 1488 1489 1489 1489 1489 1490 1492 1494 1495 1496 1496 1496 1498 1498